GW6594 Weather Reports


time (UTC)temp
C
wind
direction
speed
KPH
gust
KPH
rain 1hr
cm
rain 24hr
cm
rain mn
cm
humidity
%
barometer
mb
20260505153107 14 217 32.2 51.5 0.00 0.05 0.00 72 1008.4
20260505151600 14 207 27.4 53.1 0.00 0.05 0.00 72 1008.7
20260505130113 13 196 20.9 35.4 0.00 0.05 0.00 71 1008.7
20260505124612 12 219 27.4 41.8 0.00 0.05 0.00 72 1009.0
20260505123110 12 204 22.5 37.0 0.00 0.05 0.00 74 1009.1
20260505121559 12 209 22.5 35.4 0.00 0.05 0.00 74 1009.1
20260505120121 12 179 16.1 32.2 0.00 0.05 0.00 74 1009.1
20260505114601 11 214 14.5 27.4 0.00 0.05 0.00 75 1009.1
20260505113107 11 190 11.3 20.9 0.00 0.05 0.00 77 1009.1
20260505111600 10 188 14.5 27.4 0.00 0.05 0.00 79 1008.9
20260505110120 9 233 14.5 20.9 0.00 0.05 0.00 81 1008.9
20260505101603 8 188 14.5 24.1 0.00 0.05 0.00 84 1008.9
20260505100101 8 203 14.5 24.1 0.00 0.05 0.00 84 1008.8
20260505094600 8 225 16.1 29.0 0.00 0.05 0.00 83 1008.7
20260505093108 8 200 20.9 30.6 0.00 0.05 0.00 83 1008.5
20260505091600 8 235 17.7 30.6 0.00 0.05 0.00 82 1008.4
20260505090059 8 214 16.1 27.4 0.00 0.05 0.00 81 1008.5
20260505084558 8 215 17.7 32.2 0.00 0.05 0.00 80 1008.5
20260505083059 8 210 20.9 33.8 0.00 0.05 0.00 79 1008.4
20260505081620 8 217 20.9 37.0 0.00 0.05 0.00 79 1008.3
20260505080112 8 210 19.3 33.8 0.00 0.05 0.00 79 1008.3
20260505074559 8 200 17.7 30.6 0.00 0.05 0.00 79 1008.2
20260505073058 8 207 17.7 29.0 0.00 0.05 0.00 79 1008.3
20260505071617 8 215 20.9 30.6 0.00 0.05 0.00 79 1008.4
20260505070112 8 212 17.7 27.4 0.00 0.05 0.00 79 1008.3
20260505064604 8 213 16.1 29.0 0.00 0.05 0.00 78 1008.4
20260505063101 8 204 17.7 30.6 0.00 0.05 0.00 78 1008.3
20260505061602 9 209 17.7 32.2 0.00 0.05 0.00 78 1008.2
20260505060103 9 224 17.7 38.6 0.00 0.05 0.00 77 1008.3
20260505054559 9 221 20.9 37.0 0.00 0.05 0.00 77 1008.2
20260505053105 9 222 19.3 32.2 0.00 0.05 0.00 78 1008.1
20260505051600 9 195 17.7 33.8 0.00 0.05 0.00 77 1007.8
20260505041600 8 201 12.9 22.5 0.00 0.05 0.00 78 1007.7
20260505040110 8 214 9.7 25.7 0.00 0.05 0.00 78 1007.8
20260505034600 8 206 16.1 25.7 0.00 0.05 0.05 79 1007.7
20260505033101 8 220 11.3 19.3 0.00 0.05 0.05 79 1007.7
20260505031601 8 208 11.3 17.7 0.00 0.05 0.05 78 1007.6
20260505030104 8 222 11.3 25.7 0.00 0.05 0.05 78 1007.7
20260505024558 8 200 16.1 25.7 0.00 0.05 0.05 77 1007.8
20260505023109 8 196 12.9 20.9 0.00 0.05 0.05 77 1007.7
20260505021602 8 215 12.9 22.5 0.00 0.05 0.05 77 1007.7
20260505020105 8 188 11.3 22.5 0.00 0.05 0.05 76 1007.7
20260505014600 8 219 14.5 25.7 0.00 0.05 0.05 76 1007.6
20260505013101 8 206 12.9 20.9 0.00 0.05 0.05 76 1007.5
20260505011559 8 200 11.3 20.9 0.00 0.05 0.05 76 1007.5
20260505010104 8 202 12.9 19.3 0.00 0.05 0.05 75 1007.4
20260505004559 9 213 11.3 20.9 0.00 0.05 0.05 74 1007.3
20260505003105 9 175 11.3 17.7 0.00 0.05 0.05 74 1007.1
20260505001559 10 163 12.9 17.7 0.00 0.05 0.05 73 1006.9
20260505000112 11 135 8.0 14.5 0.00 0.05 0.05 71 1006.7
20260504234559 12 146 8.0 12.9 0.00 0.05 0.05 69 1006.5
20260504233106 12 168 8.0 17.7 0.00 0.05 0.05 65 1006.1
20260504231558 13 195 8.0 14.5 0.00 0.05 0.05 63 1006.1
20260504230059 14 167 6.4 12.9 0.00 0.05 0.05 60 1006.0
20260504224602 15 179 4.8 12.9 0.00 0.05 0.05 59 1005.8
20260504223058 15 204 8.0 14.5 0.00 0.05 0.05 58 1005.8
20260504221600 15 225 8.0 14.5 0.00 0.05 0.05 58 1005.8
20260504220123 15 240 11.3 19.3 0.00 0.05 0.05 57 1005.7
20260504214600 15 229 11.3 22.5 0.00 0.05 0.05 57 1005.6
20260504213102 16 200 9.7 20.9 0.00 0.05 0.05 57 1005.4
20260504211600 16 208 14.5 22.5 0.00 0.05 0.05 56 1005.5
20260504210059 16 180 11.3 22.5 0.00 0.05 0.05 57 1005.3
20260504204559 16 226 11.3 19.3 0.00 0.05 0.05 57 1005.3
20260504203057 16 222 14.5 19.3 0.00 0.05 0.05 60 1005.2
20260504201559 15 209 14.5 29.0 0.00 0.05 0.05 59 1005.1
20260504194559 15 227 14.5 27.4 0.00 0.10 0.05 64 1005.0
20260504193059 14 273 16.1 24.1 0.00 0.10 0.05 69 1005.2
20260504191600 13 196 14.5 22.5 0.03 0.10 0.05 78 1005.3
20260504190110 10 204 12.9 19.3 0.05 0.10 0.05 86 1005.7
20260504184616 9 229 11.3 22.5 0.05 0.20 0.05 83 1005.9
20260504183107 9 246 17.7 25.7 0.05 0.20 0.05 79 1006.1
20260504181558 10 217 14.5 24.1 0.03 0.18 0.03 76 1006.0
20260504174610 11 224 19.3 38.6 0.00 0.33 0.00 63 1005.4
20260504173104 10 190 17.7 32.2 0.00 0.33 0.00 63 1005.4
20260504171600 11 221 22.5 38.6 0.00 0.33 0.00 61 1005.4
20260504170109 13 222 20.9 33.8 0.00 0.33 0.00 60 1005.1